376  
ASUS41 KOKX 210408  
RWROKX  
 
REGIONAL WEATHER ROUNDUP  
NATIONAL WEATHER SERVICE NEW YORK NY  
1100 PM EST MON FEB 20 2017  
 
NOTE: "FAIR" INDICATES FEW OR NO CLOUDS BELOW 12,000 FEET WITH NO  
SIGNIFICANT WEATHER AND/OR S TO VISIBILITY
.  
 
NYZ071-072-176-178-NJZ106-104-210500-  
NEW YORK CITY METRO AREA  
 
CITY SKY/WX TMP DP RH WIND PRES REMARKS
 
CENTRAL PARK CLEAR 41 15 35 NE9 30.37R  
WALL ST HELIPT NOT AVBL  
LAGUARDIA APRT PTCLDY 42 14 32 N13 30.35R  
KENNEDY INTL PTCLDY 40 15 36 N10 30.36R WCI 33  
BREEZY POINT N/A 39 N/A N/A N9G16 N/A WCI 33  
NEWARK/LIBERTY PTCLDY 38 17 42 N14 30.36R WCI 30  
TETERBORO CLEAR 40 17 39 N5 30.36R  

 
 
NYZ177-179-078>081-210500-  
LONG ISLAND NEW YORK  
 
CITY SKY/WX TMP DP RH WIND PRES REMARKS
 
JONES BEACH N/A 39 N/A N/A N12 N/A WCI 32  
MATINECOCK PT N/A 39 N/A N/A NE10 N/A WCI 32  
FARMINGDALE CLEAR 35 16 45 N8 30.35R WCI 29  
MACARTHUR/ISP PTCLDY 34 19 54 N7 30.34R WCI 28  
SHIRLEY CLEAR 33 15 47 N5 30.35S WCI 29  
WESTHAMPTON CLEAR 34 15 46 N7 30.36R WCI 28  
SOUTHAMPTON NOT AVBL  
BRIDGEHAMPTON NOT AVBL  
EAST HAMPTON N/A 26 17 68 CALM 30.34R  
MONTAUK N/A 37 27 67 NE5 30.34F WCI 33  

 
 
NYZ052-065-067-210500-  
HUDSON VALLEY  
 
CITY SKY/WX TMP DP RH WIND PRES REMARKS
 
WHITE PLAINS CLEAR 35 10 35 N7 30.33R WCI 29  
NEWBURGH CLEAR 34 16 47 VRB6 30.37R WCI 29  
MONTGOMERY CLEAR 33 18 53 N5 30.35S WCI 29  
POUGHKEEPSIE CLEAR 28 19 69 CALM 30.37R  
ALBANY CLOUDY 29 13 51 N5 30.40S WCI 24  

 
 
NJZ001-105-106-008-010-013-015-019>022-104-210500-  
NEW JERSEY  
 
CITY SKY/WX TMP DP RH WIND PRES REMARKS
 
NEWARK/LIBERTY PTCLDY 38 17 42 N14 30.36R WCI 30  
TETERBORO CLEAR 40 17 39 N5 30.36R  
CALDWELL CLEAR 36 16 44 CALM 30.37R  
SOMERVILLE CLEAR 34 14 43 N5 30.35R WCI 30  
LINDEN NOT AVBL  
SUSSEX CLEAR 30 19 63 CALM 30.35S  
ANDOVER N/A 28 19 69 CALM 30.35R  
TRENTON CLEAR 39 13 34 NE8 30.35R WCI 33  
MILLVILLE CLEAR 42 19 39 E9 30.34R  
ATLANTIC CITY CLEAR 40 21 46 NE10 30.33R WCI 33  
WRIGHTSTOWN CLEAR 35 16 45 NE3 30.32R  
TOMS RIVER CLEAR 35 15 44 NE3 30.35R  
BELMAR CLEAR 40 16 37 N8 30.35R WCI 34  

 
 
PAZ047>061-062-071-210500-  
EASTERN PENNSYLVANIA  
 
CITY SKY/WX TMP DP RH WIND PRES REMARKS
 
PHILADELPHIA PTCLDY 44 12 27 NE10 30.35R  
ALLENTOWN CLOUDY 34 14 43 NE6 30.36R WCI 29  
SCRANTON CLOUDY 31 17 56 E3 30.33R  

 
 
CTZ002-004>006-009-010-012-RIZ004-006-007-MAZ004-011-015-210500-  
SOUTHERN NEW ENGLAND  
IN CT  
 
CITY SKY/WX TMP DP RH WIND PRES REMARKS
 
BRADLEY INTL CLEAR 28 11 48 N6 30.36R WCI 22  
HARTFORD CLEAR 32 13 45 N6 30.36S WCI 26  
DANBURY CLEAR 28 14 55 CALM 30.35R  
WTRBURY/OXFORD CLEAR 28 9 43 N5 30.34S WCI 23  
BRIDGEPORT CLEAR 37 11 34 N6 30.35S WCI 32  
MERIDEN CLEAR 35 11 36 CALM 30.36R  
NEW HAVEN CLEAR 33 12 41 N5 30.35R WCI 29  
CHESTER N/A 34 9 35 N7 30.33S WCI 28  
GROTON CLEAR 34 15 46 N9 30.34S WCI 27  
WILIMANTIC CLEAR 26 18 71 CALM 30.36S  
 
IN RI  
 
CITY SKY/WX TMP DP RH WIND PRES REMARKS
 
PROVIDENCE CLEAR 34 14 43 N8 30.35R WCI 27  
BLOCK ISLAND CLEAR 35 19 52 N8 30.34S WCI 29  
WESTERLY CLEAR 33 14 45 NE3 30.34S  
IN MA  
 
CITY SKY/WX TMP DP RH WIND PRES REMARKS
 
BOSTON CLEAR 35 15 44 NW10 30.36R WCI 27  
WORCESTER CLEAR 30 10 43 N9 30.31S WCI 22  
WESTFIELD CLEAR 25 15 66 N3 30.35S  
PROVINCETOWN CLEAR 39 27 62 N13 30.32R WCI 31  
NANTUCKET CLEAR 32 25 75 NW5 30.30S WCI 27  

 
 
ANZ330-335-338-340-345-350-353-355-210500-  
COASTAL MARINE OBSERVATIONS  
 
 
STATION/POSITION TIME SKY/WX TEMP WIND PRES VSBY WAVE
 
AIR SEA DIR/SP/G HT/PER  
(UTC) (F) (DEG/KT/KT) (MB) (MI) (FT/S)  
NY HARB ENTRANCE 0350 42 42 20/ 17/ 19 1026.8 3/ 4  
20 S FIRE ISLAND 0350 41 41 30/ 17/ 21 1026.5 3/ 4  
GREAT SOUTH BAY NOT AVBL  
23 SSW MONTAUK P 0250 40 43 1027.3 2/ 7  
15 E BARNEGAT LI 0330 43 N/A 3/ 4  
HUDSON CANYON 0250 49 1025.6 5/ 5  
KINGS POINT 0342 39 38 1027.6  
EXECUTION ROCKS NOT AVBL  
CENTRAL LI SOUND 0330 39 10/ 10/ 12 N/A 1/ 3  
EASTERN LI SOUND NOT AVBL  
ROBBINS REEF 0342 42 20/ 17/ 19 1027.7  

 
 
>>>>>>>>>>>>>>>>>>>>>>>>>>>> KEY <<<<<<<<<<<<<<<<<<<<<<<<<<<  
> <  
> SKY/WX - SKY CONDITION/PRESENT WEATHER <  
> TMP - TEMPERATURE IN FAHRENHEIT <  
> DP - DEW POINT IN FAHRENHEIT <  
> RH - RELATIVE HUMIDITY IN PERCENT <  
> WIND - DIRECTION (FROM) AND SPEED IN MPH <  
> PRES - MEAN SEA LEVEL PRESSURE (INCHES OF HG) <  
> WCI - WIND CHILL INDEX <  
> VSB - VISIBILITY IN MILES <  
> HX - HEAT INDEX <  
> TC - TEMPERATURE IN CELSIUS <  
> VRB - VARIABLE WIND DIRECTION <  
> <  
>>>>>>>>>>>>>>>>>>>>>>>>>>>> KEY <<<<<<<<<<<<<<<<<<<<<<<<<<<  
 
 
CLICK HERE TO GO TO PREVIOUS BULLETINS.

The Nexlab NY Page
The Nexlab NJ Page
The Nexlab CT Page Main Text Page